Vertical_Velocity
5 9 4 -0 5 9 1 -8 -17 -10 4 4 6 13 18 -2 -7 1 -3 -2 12 9 2 3 -5 -2 -1 -0 0 -1 -2 -1 -2 0 -1 -2 -1 -2
8 9 -3 0 8 9 20 7 15 3 6 6 -2 -4 4 3 1 6 -4 -2 -3 -2 -0 5 -2 -5 -0 -1 1 -0 -1 1 2 -0 -2 -1 0 2
8 14 7 5 3 12 15 8 6 17 26 -4 0 1 6 1 6 -4 -1 -5 -2 -1 1 3 -0 -4 -0 1 -0 1 -1 -1 -2 0 1 1 1 -1
3 2 2 5 2 1 2 3 -5 -2 11 15 7 -5 -1 5 -3 -3 -4 -3 -5 3 1 -0 -2 -0 2 0 -3 -1 -3 -3 1 -1 -0 -1 -2 -1
1 2 -1 -1 -1 -1 1 3 -1 6 3 -1 -1 -6 -1 4 -1 -0 -2 -1 -2 2 -2 -2 -2 1 -2 -4 -3 -3 -3 -2 -2 -2 -2 -1 -1 0
2 1 2 2 2 -1 -0 3 -2 -1 3 2 -1 3 3 -1 -2 1 1 -1 2 1 -2 -1 -1 1 -4 -1 -2 -2 -2 -3 -2 -2 -1 0 -0 -1
4 -0 -3 1 1 -4 5 -1 -3 -2 -1 4 -4 -3 -2 -1 2 0 0 1 1 -3 -4 5 -2 -3 -2 -0 -3 -1 -2 -4 -3 -3 -2 -3 -3 -2
6 -2 -7 10 6 2 -4 -5 -3 -2 -1 0 -1 1 -1 -0 -2 -3 -1 -0 -3 -7 -5 6 -4 2 -1 -2 -2 -4 -5 -3 -2 -2 -3 -2 -4 -2
9 5 -3 -1 -0 -1 -2 1 -0 -0 0 1 2 0 -0 -3 0 0 -0 -3 -2 -2 -4 11 -10 1 -3 -1 -3 -1 -0 0 -2 -2 -2 -1 -0 -1
1 1 -0 0 0 1 -0 0 0 1 2 -1 0 0 -0 1 -2 -1 -1 -1 -0 0 -3 3 -7 1 2 0 -2 -2 -1 -0 -4 -3 -3 -2 -3 -4
1 1 1 -0 0 2 -2 -0 -2 -3 -0 -0 -1 0 -1 -3 -3 -2 -2 -1 1 -0 -4 -5 -6 -2 0 0 -1 1 0 1 -1 -2 -3 -2 -2 -3
-1 -1 -2 -2 -2 0 -2 -1 -0 -2 -1 -3 -3 -1 -1 -0 0 -1 -1 0 0 -1 -3 -1 -5 -14 -2 10 4 -0 1 -0 -4 -1 -1 -2 -3 -5
-1 -1 0 -2 -0 0 -0 -1 -1 -1 -1 -1 -2 -2 -2 -1 1 2 0 -3 -2 -1 -6 -6 3 -2 -8 -17 5 -2 -3 1 -5 2 1 -1 1 -3
2 1 1 -2 -2 -1 0 0 -1 -2 -2 -2 -2 -2 -1 -1 1 -0 -2 -2 -1 1 -1 -4 -5 -5 -5 -2 -14 5 1 1 -6 -4 -2 -0 1 -1
-0 0 0 0 -0 -0 -1 -2 -2 -1 -1 -1 -1 -2 -1 -1 -0 -1 -1 -2 -1 2 -0 -1 -5 -3 -5 -4 -13 -0 -13 8 3 -4 -5 -1 0 1
1 -0 -0 -1 -0 -1 -1 -1 -1 -2 -2 -1 -1 -2 -1 -2 -1 -1 -0 -2 -0 4 1 1 -2 -4 -1 -0 -4 -1 2 -12 4 -2 -5 1 2 -0
-3 -2 -1 -0 -0 -0 -1 -1 -2 -2 -1 -1 -1 -0 -1 -0 -0 -1 -0 0 -2 -1 3 1 1 -3 -3 -5 -6 -4 -4 -0 2 -1 -6 -3 6 1
-3 -2 -1 -0 -1 -1 -0 -0 0 0 0 1 0 1 1 1 0 1 -2 -1 -1 0 1 1 0 -0 3 9 -5 -2 2 -7 0 -0 -1 -13 3 9
-1 -1 -0 -0 -0 0 -0 1 0 -0 1 -0 0 -0 -1 -0 -2 -0 -1 -1 1 -1 2 0 -1 -4 -6 -9 8 10 -9 4 -7 1 -3 1 -11 10
-1 -1 -1 -1 -1 -1 -1 -0 1 -0 -1 -1 -1 -2 -2 -2 -0 -1 -1 -2 -2 -0 0 5 2 -1 -5 -7 -15 12 7 -7 -1 3 2 -3 -2 2
-0 0 0 1 0 -0 -1 -2 -1 -1 -1 -0 -0 -0 -1 -1 1 -1 -0 -0 -3 -2 -3 1 3 2 -3 -3 -3 7 7 2 -3 -8 -3 -11 -4 2
0 0 1 1 0 -0 -1 -1 -1 -1 -0 0 0 -1 -1 -1 -2 -1 -0 -2 2 -1 -2 0 2 1 2 -2 -2 -6 5 10 8 2 4 -3 -16 -17
-1 -1 -1 1 0 0 1 2 1 1 0 1 0 0 -0 -0 -2 -1 -2 -1 -1 0 2 -2 0 3 2 -1 -6 -6 -4 2 1 3 8 3 -1 -4
Height
3066 3068 3068 3068 3071 3072 3071 3071 3066 3068 3071 3067 3067 3066 3066 3067 3065 3066 3064 3062 3063 3061 3059 3056 3054 3051 3050 3048 3047 3046 3044 3041 3040 3039 3037 3035 3035 3034
3055 3057 3056 3058 3062 3062 3060 3059 3059 3060 3057 3057 3055 3053 3055 3054 3051 3052 3051 3049 3049 3046 3045 3042 3041 3038 3035 3034 3033 3032 3030 3027 3025 3023 3022 3020 3019 3018
3045 3046 3047 3049 3049 3049 3049 3050 3048 3046 3044 3044 3045 3044 3042 3040 3040 3039 3037 3035 3035 3034 3031 3030 3028 3026 3022 3021 3019 3017 3016 3013 3010 3007 3006 3004 3003 3001
3035 3037 3039 3040 3041 3041 3042 3042 3042 3039 3035 3035 3032 3032 3030 3028 3028 3025 3025 3025 3021 3021 3020 3018 3015 3012 3009 3007 3005 3003 3001 2997 2994 2992 2989 2986 2984 2983
3026 3028 3029 3031 3032 3032 3033 3033 3032 3029 3026 3026 3024 3021 3020 3018 3016 3014 3012 3011 3010 3010 3008 3006 3002 3000 2997 2993 2991 2988 2984 2980 2977 2974 2972 2971 2969 2968
3017 3019 3020 3021 3022 3023 3023 3022 3021 3019 3016 3015 3013 3011 3009 3007 3005 3004 3003 3001 3000 2999 2995 2992 2990 2987 2983 2980 2976 2972 2968 2966 2964 2962 2960 2959 2957 2957
3009 3010 3012 3013 3014 3014 3014 3013 3011 3009 3006 3004 3003 3000 2998 2997 2995 2994 2992 2991 2990 2987 2982 2979 2976 2972 2970 2967 2965 2962 2959 2956 2953 2950 2948 2947 2945 2944
3004 3004 3006 3006 3006 3006 3006 3004 3002 2999 2996 2994 2992 2991 2990 2987 2985 2984 2982 2979 2978 2975 2968 2970 2963 2964 2962 2959 2957 2953 2949 2945 2942 2939 2937 2934 2933 2931
2998 2998 2999 3000 2999 2998 2997 2995 2993 2990 2988 2986 2983 2982 2980 2979 2975 2974 2970 2966 2965 2961 2959 2962 2958 2957 2954 2952 2948 2944 2939 2935 2932 2929 2927 2925 2923 2922
2994 2995 2994 2993 2992 2990 2990 2988 2984 2981 2980 2977 2974 2973 2970 2967 2963 2961 2959 2957 2957 2956 2953 2954 2951 2949 2947 2945 2940 2936 2931 2926 2922 2919 2917 2914 2912 2911
2991 2990 2989 2988 2986 2985 2982 2979 2976 2973 2970 2967 2964 2961 2958 2955 2954 2953 2953 2953 2953 2952 2948 2945 2944 2939 2940 2938 2934 2930 2925 2919 2915 2911 2908 2904 2901 2899
2989 2987 2985 2982 2979 2976 2972 2969 2967 2962 2959 2956 2954 2951 2949 2949 2949 2949 2949 2949 2947 2946 2941 2941 2938 2932 2928 2932 2927 2921 2917 2912 2908 2904 2900 2896 2893 2888
2983 2980 2977 2973 2969 2965 2962 2958 2955 2952 2949 2947 2946 2946 2945 2946 2945 2945 2944 2943 2941 2939 2934 2929 2932 2928 2921 2915 2918 2913 2907 2903 2899 2896 2892 2887 2884 2880
2976 2972 2967 2963 2959 2955 2952 2949 2947 2946 2944 2944 2944 2943 2942 2942 2941 2940 2939 2937 2936 2933 2929 2923 2919 2917 2914 2909 2905 2904 2899 2894 2889 2886 2882 2879 2875 2871
2969 2965 2959 2955 2951 2948 2946 2945 2944 2943 2942 2942 2941 2940 2939 2938 2937 2935 2933 2931 2930 2927 2923 2918 2912 2910 2906 2901 2895 2894 2887 2886 2881 2875 2872 2868 2865 2862
2962 2957 2952 2948 2945 2944 2943 2943 2942 2941 2940 2940 2938 2937 2936 2934 2932 2930 2928 2925 2923 2922 2917 2913 2907 2902 2898 2895 2888 2884 2880 2871 2870 2866 2861 2858 2855 2853
2955 2950 2946 2943 2942 2941 2941 2940 2939 2938 2937 2936 2934 2933 2931 2929 2927 2924 2921 2918 2915 2913 2912 2906 2901 2895 2890 2886 2881 2877 2871 2866 2860 2855 2853 2849 2847 2844
2949 2945 2941 2940 2939 2938 2938 2937 2936 2935 2934 2932 2930 2928 2926 2924 2921 2918 2914 2911 2908 2906 2903 2900 2894 2888 2883 2881 2874 2867 2862 2857 2853 2848 2844 2839 2837 2836
2944 2940 2938 2937 2936 2935 2934 2932 2931 2930 2929 2927 2925 2923 2920 2918 2914 2911 2908 2905 2902 2898 2896 2892 2886 2879 2871 2866 2867 2861 2852 2846 2842 2839 2835 2831 2827 2828
2939 2936 2935 2934 2932 2931 2930 2928 2926 2925 2923 2921 2919 2917 2914 2911 2908 2904 2901 2898 2894 2891 2887 2884 2879 2872 2865 2857 2850 2852 2847 2841 2835 2829 2827 2824 2820 2816
2934 2932 2931 2930 2929 2928 2927 2925 2922 2920 2918 2916 2913 2911 2907 2904 2901 2897 2893 2890 2886 2881 2877 2875 2871 2864 2857 2851 2845 2841 2837 2831 2825 2819 2816 2813 2809 2805
2930 2929 2928 2927 2926 2924 2922 2920 2917 2915 2912 2910 2907 2904 2900 2896 2892 2888 2885 2881 2877 2873 2868 2864 2861 2855 2849 2842 2835 2828 2825 2822 2817 2812 2807 2804 2800 2795
2926 2924 2923 2922 2921 2919 2916 2914 2912 2909 2906 2903 2900 2896 2892 2888 2884 2880 2876 2872 2867 2863 2859 2854 2850 2845 2837 2831 2824 2819 2814 2811 2806 2801 2797 2795 2791 2787